Погода в Сибирском

Россия / Алтайский край     53°33′26″N   83°50′21″E
темп.,
°C
ветер,
м/с
пор.,
м/с
влажн.,
%
обл.,
%
осадки,
мм/ч
давл.,
гПа
погр.,
м
19 апреля, пн
пн1901:00+8зюз61775100 1.0 10041217
04:00+6зюз81687100 3.3 10031403
07:00−4зсз81575100 3.5 10111025
10:00−3сз71159100 0.0 10171190
13:00−1сз5750100 0.0 10211673
16:00+1ссз4540100 0.0 10221958
19:00−1ссз4545100 0.0 10231486
22:00−4ссз36555 0.0 1024888
20 апреля, вт
вт2001:00−5с46605 0.0 1025881
04:00−5с345476 0.0 10261078
07:00−6ссз344617 0.0 10271174
10:00−4с343863 0.0 10271516
13:00−1с3436100 0.0 10261732
16:000с343697 0.0 10251892
19:00−1с33385 0.0 10251558
22:00−3с22550 0.0 102635
21 апреля, ср
ср2101:00−4ссв11530 0.0 102510
04:00−4зюз11525 0.0 102415
07:00−3ююз1347100 0.0 1024148
10:000ююз2335100 0.0 10231189
13:00+2ююз3330100 0.0 10221738
16:00+3ю2232100 0.0 10211949
19:00+2в1146100 0.0 102352
22:00−1в3760100 0.0 1025149
22 апреля, чт
чт2201:00−1св2459100 0.0 102682
04:00−1св3770100 0.0 1028227
07:00−2с397049 0.0 1031457
10:00+2ссв58445 0.0 10331213
13:00+4ссв5638100 0.0 10342263
16:00+5ссв5638100 0.0 10352285
19:00+3ссв585390 0.1 10371402
22:000ссв410684 0.0 1040356
23 апреля, пт
пт2301:00−1ссв411775 0.0 1040565
04:00−1ссв411795 0.0 1040475
07:00−1ссв511805 0.0 1041507
10:00+3св68555 0.0 10401036
13:00+6св6841100 0.0 10382200
16:00+7св6843100 0.0 10362104
19:00+6ссв6957100 0.1 10361293
22:00+3ссв51369100 0.0 1036690